Regional Weather Roundup
Issued by NWS

Home | Current Version | Previous Version | Graphics & Text | Print | Product List | Glossary On
Versions: 1 2 3 4 5 6 7 8 9 10 11 12 13 14 15 16 17 18 19 20 21 22 23 24 25 26 27
000
ASUS45 KCYS 262110
RWRWY

WYOMING REGIONAL WEATHER ROUNDUP
NATIONAL WEATHER SERVICE CHEYENNE WY
300 PM MDT TUE JUL 26 2016

NOTE:  "FAIR" INDICATES FEW OR NO CLOUDS BELOW 12,000 FEET
WITH NO SIGNIFICANT WEATHER AND/OR OBSTRUCTIONS TO VISIBILITY.

WYZ001-262200-
YELLOWSTONE NATIONAL PARK

CITY           SKY/WX    TMP DP  RH WIND       PRES   REMARKS
LK YELLOWSTONE   N/A     76  32  20 CALM      30.34F
W YELLOWSTONE  NOT AVBL

$$
WYZ002>013-054>058-071-098>099-262200-
NORTHERN WYOMING

CITY           SKY/WX    TMP DP  RH WIND       PRES   REMARKS
JACKSON        SUNNY     82  30  15 W6        30.21F
CODY           FAIR      84  46  26 NE12      30.13F
GREYBULL       FAIR      92  41  17 VRB3      30.01F
WORLAND        FAIR      93  37  14 N7        30.03F
SHERIDAN       FAIR      87  44  22 N6        30.06F
BUFFALO        FAIR      89  43  20 N10G21    30.13F
GILLETTE       FAIR      89  44  20 N10G18    30.08F
HULETT         FAIR      88  48  25 E10G18    30.09F
NEWCASTLE      FAIR      90  45  20 S6        30.05F

$$
WYZ014>020-022>026-101>103-262200-
CENTRAL WYOMING

CITY           SKY/WX    TMP DP  RH WIND       PRES   REMARKS
BIG PINEY      FAIR      87  28  12 W7        30.24F
PINEDALE       FAIR      82  25  12 NW20G32   30.26F
DUBOIS         FAIR      84  21  10 N15G21    30.25F
LANDER         FAIR      90  38  16 S5        30.10F
RIVERTON       FAIR      91  30  11 CALM      30.11F
CASPER         FAIR      90  38  16 NE8       30.12F
DOUGLAS          N/A    N/A N/A N/A MISG      30.08F

$$
WYZ021-027>030-104>119-262200-
SOUTHERN WYOMING

CITY           SKY/WX    TMP DP  RH WIND       PRES   REMARKS
EVANSTON       FAIR      86  32  14 NW16      30.25F
KEMMERER         N/A    N/A N/A N/A S13G21    30.26F
FORT BRIDGER   TSTM      78  41  26 NW20G36   30.30R
ROCK SPRINGS   FAIR      88  23   9 S8        30.20F
DIXON          FAIR      79  32  18 NW35G48   30.29R
RAWLINS        FAIR      87  20   8 SW13G20   30.23S
SARATOGA       FAIR      81  28  15 NW20G30   30.27S
LARAMIE        FAIR      88  18   7 N18G32    30.25F
CHEYENNE       FAIR      88  38  17 VRB6      30.19F
TORRINGTON     FAIR      95  50  21 N10       30.00F HX  92
PINE BLUFFS    FAIR      82  37  20 W13G22    30.13R THUNDER

$$




USA.gov is the U.S. government's official web portal to all federal, state and local government web resources and services.